OPS 4682 DEB, 38409

Orbit data source: Space-Track

OPS 4682 DEB, 38409 is space debris in LEO originally from a launch on Sat, 03 Apr 1965 UTC launched from the Air Force Western Test Range (AFWTR). Debris objects in space refer to the collection of defunct objects orbiting the Earth. Examples of debris include non-operational satellites, rocket bodies, and fragments generated from explosions, collisions, or faulty payload assembly.

Loading next visibility...
Identifier
38409, 1965-027DN
Orbit
LEO
Country
Flag of USUS
Related business
Manufacturer
Unknown
Mission
Spacecraft
Bus & Motor
Unknown
Mass
Unknown
Launch date (UTC)
1965-04-03 (61 years ago)
Launch vehicle
Unknown
Launch site
Air Force Western Test Range (AFWTR)
Object type
Payload
Rocket body
Debris
Shape & HBR
Unknown shape, 0.1 m
Radar Cross Section
Medium (>0.1 m² and <1 m²)

Expand to show TLE details & history
Last TLE update: 1 day ago

TLE from 1 day ago
0 OPS 4682 DEB
1 38409U 65027DN  26174.35042265  .00000816  00000-0  27135-2 0  9996
2 38409  90.2904  27.2613 0035595 336.5009  23.4485 12.99166228189015
Epoch: 2026-06-23T08:24Z
TLE epoch observation values (Epoch: 2026-06-23T08:24:36.516Z)
Latitude
-0.00002°
Longitude
-10.4141°
Altitude
1,243.288 km
Speed
7.245 km/s
True Right ascension
01h 49m 02s
True Declination
0° 00' 00"
Sunlit
Object was in daylight at epoch
Visualization orbit readout
Latitude
Unknown
Longitude
Unknown
Altitude
Unknown
Speed
Unknown
Apparent Right ascension
Unknown
Apparent Declination
Unknown
Sunlit
N/A
Visualization observer readout
Local Sidereal Time
19:24:51
Azimuth
Unknown
Elevation
Unknown
Doppler factor
Unknown
Orbital elements
Apogee altitude
1,289.68 km
Perigee altitude
1,235.287 km
Semi-major axis
7,640.62 km
Eccentricity
0.00356
Inclination
90.2904°
RAAN
27.2613°
Arg. of periapsis
336.5009°
True anomaly
23.61147°
Mean anomaly
23.4485°
Eccentric anomaly
23.52992°
Mean motion
3.24975 °/min
Orbital period
110.78 mins
BSTAR
0.0027135
Loading maneuver chart data...
Computing Atmospheric mass density...
Loading historical data...
Loading historical data...
Loading historical data...
Loading historical data...
Loading historical data...
Loading historical data...
Loading historical data...

Documentation

Showing up to 5 results
|